| time (UTC) | temp F | wind direction | speed MPH | gust MPH | rain 1hr in | rain 24hr in | rain mn in | humidity % | barometer mb |
| 20260506060806 | 44 | 270 | 5.0 | 6.0 | 0.00 | 0.00 | 0.00 | 65 | 1006.9 |
| 20260506060306 | 45 | 127 | 1.0 | 7.0 | 0.00 | 0.00 | 0.00 | 64 | 1006.8 |
| 20260506050307 | 47 | 265 | 2.0 | 6.0 | 0.00 | 0.00 | 0.00 | 61 | 1006.1 |
| 20260506040806 | 51 | 336 | 4.0 | 6.0 | 0.00 | 0.00 | 0.00 | 57 | 1005.5 |
| 20260506040307 | 51 | 284 | 5.0 | 7.0 | 0.00 | 0.00 | 0.00 | 57 | 1005.4 |
| 20260506030806 | 53 | 293 | 3.0 | 6.0 | 0.00 | 0.00 | 0.00 | 54 | 1005.0 |
| 20260506030308 | 53 | 333 | 2.0 | 7.0 | 0.00 | 0.00 | 0.00 | 54 | 1005.0 |
| 20260506020807 | 55 | 279 | 1.0 | 3.0 | 0.00 | 0.00 | 0.00 | 52 | 1004.7 |
| 20260506010806 | 57 | 293 | 2.0 | 7.0 | 0.00 | 0.00 | 0.00 | 50 | 1003.7 |
| 20260506010307 | 57 | 15 | 2.0 | 10.0 | 0.00 | 0.00 | 0.00 | 50 | 1003.7 |
| 20260506000806 | 60 | 74 | 2.0 | 7.0 | 0.00 | 0.00 | 0.00 | 47 | 1003.9 |
| 20260506000306 | 60 | 46 | 3.0 | 8.0 | 0.00 | 0.00 | 0.00 | 47 | 1003.8 |
| 20260505230307 | 60 | 52 | 1.0 | 8.0 | 0.00 | 0.00 | 0.00 | 46 | 1003.6 |
| 20260505220806 | 60 | 36 | 2.0 | 8.0 | 0.00 | 0.00 | 0.00 | 44 | 1003.5 |
| 20260505220306 | 60 | 347 | 3.0 | 8.0 | 0.00 | 0.00 | 0.00 | 44 | 1003.4 |
| 20260505210807 | 61 | 15 | 2.0 | 6.0 | 0.00 | 0.00 | 0.00 | 45 | 1003.1 |
| 20260505210307 | 61 | 87 | 1.0 | 9.0 | 0.00 | 0.00 | 0.00 | 44 | 1003.0 |
| 20260505200806 | 60 | 334 | 3.0 | 6.0 | 0.00 | 0.00 | 0.00 | 56 | 1002.9 |
| 20260505200306 | 60 | 60 | 2.0 | 8.0 | 0.00 | 0.00 | 0.00 | 57 | 1002.8 |
| 20260505180806 | 56 | 305 | 2.0 | 5.0 | 0.00 | 0.00 | 0.00 | 60 | 1003.5 |
| 20260505180308 | 55 | 350 | 1.0 | 6.0 | 0.00 | 0.00 | 0.00 | 60 | 1003.5 |
| 20260505170807 | 53 | 52 | 1.0 | 5.0 | 0.00 | 0.00 | 0.00 | 62 | 1003.5 |
| 20260505170307 | 53 | 24 | 1.0 | 7.0 | 0.00 | 0.00 | 0.00 | 61 | 1003.5 |
| 20260505160805 | 49 | 297 | 3.0 | 6.0 | 0.00 | 0.00 | 0.00 | 66 | 1003.6 |
| 20260505160306 | 49 | 334 | 3.0 | 7.0 | 0.00 | 0.00 | 0.00 | 66 | 1003.7 |
| 20260505150806 | 48 | 23 | 2.0 | 5.0 | 0.00 | 0.00 | 0.00 | 66 | 1004.1 |
| 20260505150307 | 48 | 23 | 2.0 | 6.0 | 0.00 | 0.00 | 0.00 | 65 | 1004.1 |
| 20260505130306 | 48 | 36 | 2.0 | 7.0 | 0.00 | 0.00 | 0.00 | 66 | 1004.2 |
| 20260505120806 | 48 | 54 | 3.0 | 6.0 | 0.00 | 0.00 | 0.00 | 66 | 1005.1 |
| 20260505120307 | 48 | 14 | 2.0 | 7.0 | 0.00 | 0.00 | 0.00 | 66 | 1005.3 |
| 20260505110807 | 50 | 30 | 3.0 | 5.0 | 0.00 | 0.00 | 0.00 | 64 | 1005.9 |
| 20260505100807 | 51 | 298 | 3.0 | 8.0 | 0.00 | 0.00 | 0.00 | 62 | 1006.4 |
| 20260505100306 | 51 | 338 | 4.0 | 8.0 | 0.00 | 0.00 | 0.00 | 62 | 1006.4 |
| 20260505090807 | 52 | 35 | 3.0 | 6.0 | 0.00 | 0.00 | 0.00 | 61 | 1006.7 |
| 20260505090307 | 52 | 10 | 2.0 | 8.0 | 0.00 | 0.00 | 0.00 | 60 | 1006.8 |
| 20260505080806 | 51 | 355 | 3.0 | 9.0 | 0.00 | 0.00 | 0.00 | 61 | 1007.4 |
| 20260505080306 | 51 | 275 | 3.0 | 9.0 | 0.00 | 0.00 | 0.00 | 62 | 1007.5 |
| 20260505070308 | 52 | 328 | 3.0 | 7.0 | 0.00 | 0.00 | 0.00 | 62 | 1008.7 |